[[{"header":{"parameterUnit":"m.s-1","parameterCategory":1,"la1":30.2991,"la2":30.254,"lo1":-89.0895,"lo2":-89.0444,"dy":0.0017,"dx":0.0017,"nx":28,"ny":28,"refTime":"2024-09-04T03:00:00:Z","depth":0,"parameterNumber":2,"parameterNumberName":"U-component_of_WINDS"},"data":[0,0,0,0,0,0,0,0,0,0,0,0,0,0,0,0,0,0,0,0,0,0,0,0,0,0,0,0,0,0,0,0,0,0,0,0,0,0,0,0,0,0,0,0,0,0,0,0,0,0,0,0,0,0,0,0,0,0,-5.584,-5.5841,0,-5.5894,-5.5895,-5.5895,-5.5704,-5.5698,-5.5692,-5.5687,-5.5749,-5.5756,-5.5763,0,0,0,0,0,0,0,0,0,0,0,0,0,-5.5578,-5.5584,-5.584,-5.5841,-5.5841,-5.5894,-5.5895,-5.5896,-5.5705,-5.5698,-5.5691,-5.5684,-5.5747,-5.5755,-5.5763,0,0,0,0,0,0,0,0,0,0,0,0,0,-5.5669,-5.5586,-5.584,-5.5752,-5.5745,-5.5894,-5.5895,-5.5896,-5.5706,-5.5697,-5.5689,-5.5681,-5.5744,-5.5754,-5.5765,-5.6003,0,0,-5.5797,-5.5801,0,0,0,0,0,0,0,0,-5.5664,-5.5678,-5.5764,-5.5759,-5.5751,-5.5783,-5.5825,-5.5932,-5.5708,-5.5721,-5.5686,-5.5676,-5.5768,-5.5776,-5.5805,-5.6006,-5.6008,-5.5798,-5.5804,-5.5809,-5.5812,0,0,0,0,0,0,0,-5.5658,-5.5675,-5.5861,-5.5766,-5.5758,-5.5713,-5.5716,-5.5844,-5.5793,-5.5719,-5.5705,-5.5714,-5.5762,-5.5795,-5.5805,-5.6009,-5.5797,-5.5807,-5.5813,-5.5817,-5.641,-5.6419,0,0,0,0,0,0,-5.5662,-5.5671,-5.586,-5.5863,-5.5685,-5.5724,-5.5728,-5.5782,-5.579,-5.5783,-5.5721,-5.5705,-5.5782,-5.5793,-5.5807,-5.6087,-5.5809,-5.5818,-5.5824,-5.64,-5.6412,-5.6422,0,0,0,0,0,0,-5.5657,-5.568,-5.5857,-5.5763,-5.5782,-5.5738,-5.58,-5.5787,-5.582,-5.5792,-5.5782,-5.5764,-5.5775,-5.5792,-5.5955,-5.6087,-5.5823,-5.5833,-5.6389,-5.6404,-5.6417,-5.665,0,0,0,0,0,0,-5.565,-5.568,-5.5768,-5.5767,-5.5788,-5.6004,-5.5808,-5.5794,-5.5838,-5.5817,-5.583,-5.5824,-5.577,-5.5941,-5.5966,-5.6096,-5.5841,-5.6377,-5.6396,-5.6413,-5.663,-5.667,-5.6704,0,0,0,0,0,-5.5642,-5.5833,-5.5774,-5.5797,-5.5897,-5.6012,-5.6024,-5.5956,-5.5849,-5.5939,-5.5921,-5.5823,-5.6068,-5.5959,-5.5986,-5.6122,-5.6369,-5.6391,-5.6411,-5.6614,-5.6662,-5.6703,0,0,0,0,0,0,-5.5853,-5.5831,-5.5765,-5.5961,-5.599,-5.5979,-5.609,-5.601,-5.6071,-5.6049,-5.5964,-5.5969,-5.6149,-5.6151,-5.603,-5.6353,-5.62,-5.6228,-5.6345,-5.6391,-5.6428,-5.6424,-5.585,0,0,0,0,0,-5.5922,-5.6014,-5.5991,-5.6166,-5.6184,-5.6135,-5.6182,-5.6127,-5.6155,-5.6166,-5.616,-5.6193,-5.6276,-5.6334,-5.6409,-5.663,-5.6631,-5.6736,-5.6773,-5.6804,-5.6829,-5.6948,-5.6995,-5.6492,-5.6491,-5.6491,0,0,-5.6066,-5.6065,-5.6129,-5.6209,-5.6224,-5.6325,-5.6146,-5.626,-5.6334,-5.6184,-5.6338,-5.6335,-5.6365,-5.6559,-5.6644,-5.6567,-5.6969,-5.6831,-5.6856,-5.6864,-5.6975,-5.7022,-5.7065,-5.6506,-5.6503,-5.6501,0,0,-5.638,-5.6388,-5.6535,-5.6555,-5.658,-5.6546,-5.6582,-5.6584,-5.6576,-5.6729,-5.6619,-5.6707,-5.6853,-5.688,-5.6913,-5.7239,-5.7152,-5.7266,-5.746,-5.7577,-5.7617,-5.7651,-5.7769,-5.7813,-5.7291,-5.7292,-5.7292,0,-5.6557,-5.6701,-5.6622,-5.6743,-5.6782,-5.6649,-5.6799,-5.6823,-5.6873,-5.6904,-5.6816,-5.6998,-5.7009,-5.7207,-5.7287,-5.7318,-5.7358,-5.7264,-5.7617,-5.7651,-5.7682,-5.7794,-5.7838,-5.7305,-5.7304,-5.7302,-5.7301,0,-5.6917,-5.702,-5.7136,-5.7186,-5.7238,-5.7374,-5.7318,-5.7381,-5.7322,-5.7299,-5.7457,-5.7466,-5.7542,-5.7585,-5.7529,-5.7777,-5.7728,-5.763,-5.7475,-5.7745,-5.7849,-5.7891,-5.7325,-5.732,-5.7316,-5.7313,0,0,-5.7366,-5.737,-5.7415,-5.7436,-5.7455,-5.7534,-5.7665,-5.7737,-5.7793,-5.7833,-5.7942,-5.8069,-5.7979,-5.8016,-5.7963,-5.8065,-5.8325,-5.7954,-5.7954,-5.8024,-5.8601,-5.8676,-5.8726,-5.8267,-5.8275,-5.8281,-5.8599,0,-5.7675,-5.7895,-5.7829,-5.8052,-5.8147,-5.8023,-5.8137,-5.8163,-5.8145,-5.8225,-5.8206,-5.8298,-5.8171,-5.8193,-5.8288,-5.8273,-5.844,-5.8249,-5.8371,-5.8376,-5.8368,-5.878,-5.8859,-5.9158,-5.8639,-5.8646,-5.8651,0,-5.8065,-5.8119,-5.8351,-5.8355,-5.8392,-5.8496,-5.8557,-5.8634,-5.8662,-5.8642,-5.8685,-5.8611,-5.8742,-5.8586,-5.8766,-5.8638,-5.8684,-5.8685,-5.8695,-5.8704,-5.853,-5.8802,-5.9251,-5.9297,-5.8713,-5.8708,-5.8704,0,-5.8371,-5.8501,-5.8657,-5.8679,-5.8688,-5.8764,-5.8771,-5.879,-5.8838,-5.8893,-5.8924,-5.8995,-5.9034,-5.9092,-5.904,-5.893,-5.923,-5.9069,-5.9219,-5.9221,-5.9289,-5.9285,-5.9753,-5.9317,-5.9316,-5.9316,-5.9315,0,-5.8724,-5.8872,-5.8794,-5.8891,-5.9053,-5.8977,-5.914,-5.9134,-5.9152,-5.9247,-5.9145,-5.9237,-5.9162,-5.9248,-5.9208,-5.9365,-5.9384,-5.9373,-5.9361,-5.9383,-5.9385,-5.9413,-5.9391,-5.9327,-5.9325,-5.9322,-5.932,0,-5.9093,-5.9047,-5.9209,-5.9204,-5.9206,-5.9326,-5.9323,-5.9413,-5.9388,-5.9509,-5.9534,-5.9496,-5.9592,-5.9545,-5.9646,-5.962,-5.9823,-5.9782,-5.9813,-5.9803,-5.9957,-5.9944,-6.046,-6.0524,-6.0046,-6.0051,-6.0055,0,-5.9322,-5.9432,-5.9438,-5.9493,-5.9507,-5.9598,-5.9646,-5.9576,-5.9631,-5.9672,-5.9759,-5.9845,-5.9911,-6.0071,-6.0054,-6.0131,-6.0093,-6.0268,-6.0104,-6.0123,-6.0097,-6.0092,-6.0103,-6.0302,-6.0308,-6.0312,-6.0316,0,-5.9734,-5.9705,-5.9777,-5.9844,-5.9904,-5.9953,-5.9993,-6.0045,-5.9976,-6.0044,-6.014,-6.0191,-6.0293,-6.0382,-6.045,-6.046,-6.0379,-6.0368,-6.0407,-6.0431,-6.0445,-6.0441,-5.9905,-6.0356,-6.0352,-6.0349,-6.0347,-6.0345,-6.004,-6.0133,-6.0152,-6.0237,-6.0259,-6.03,-6.0385,-6.037,-6.0448,-6.0524,-6.0479,-6.0593,-6.0619,-6.0701,-6.0723,-6.0812,-6.0743,-6.08,-6.0814,-6.083,-6.0851,-6.043,-6.0824,-6.0823,-6.0822,-6.0821,-6.082,0,-6.0447,-6.0453,-6.0532,-6.0591,-6.0659,-6.0573,-6.0614,-6.0677,-6.0777,-6.0808,-6.0875,-6.0987,-6.1072,-6.1063,-6.1142,-6.1216,-6.118,-6.1239,-6.1233,-6.1238,-6.0907,-6.0866,-6.1266,-6.1266,-6.1266,-6.1266,-6.1266,-6.1266,-6.0667,-6.082,-6.0795,-6.0959,-6.0965,-6.1073,-6.1104,-6.1142,-6.1166,-6.1295,-6.1365,-6.1357,-6.1372,-6.1452,-6.1528,-6.1523,-6.1558,-6.1631,-6.1613,-6.1305,-6.1261,-6.1218,-6.1179,-6.1639,-6.1639,-6.1935,-6.1938,-6.194]},{"header":{"parameterUnit":"m.s-1","parameterCategory":1,"la1":30.2991,"la2":30.254,"lo1":-89.0895,"lo2":-89.0444,"dy":0.0017,"dx":0.0017,"nx":28,"ny":28,"refTime":"2024-09-04T03:00:00:Z","depth":0,"parameterNumber":3,"parameterNumberName":"V-component_of_WINDS"},"data":[0,0,0,0,0,0,0,0,0,0,0,0,0,0,0,0,0,0,0,0,0,0,0,0,0,0,0,0,0,0,0,0,0,0,0,0,0,0,0,0,0,0,0,0,0,0,0,0,0,0,0,0,0,0,0,0,0,0,-2.09,-2.0898,0,-2.0753,-2.0752,-2.075,-2.0672,-2.0672,-2.0672,-2.0672,-2.0518,-2.0514,-2.051,0,0,0,0,0,0,0,0,0,0,0,0,0,-2.1105,-2.1101,-2.09,-2.0898,-2.0896,-2.0754,-2.0752,-2.075,-2.0672,-2.0672,-2.0672,-2.0672,-2.0519,-2.0515,-2.051,0,0,0,0,0,0,0,0,0,0,0,0,0,-2.0993,-2.11,-2.09,-2.084,-2.0834,-2.0754,-2.0752,-2.0749,-2.0672,-2.0672,-2.0672,-2.0672,-2.0521,-2.0515,-2.0509,-2.0477,0,0,-2.0491,-2.0489,0,0,0,0,0,0,0,0,-2.0999,-2.0985,-2.0851,-2.0844,-2.0837,-2.0731,-2.0768,-2.0658,-2.0672,-2.0733,-2.0672,-2.0672,-2.0589,-2.0577,-2.055,-2.047,-2.0463,-2.0491,-2.0487,-2.0485,-2.0483,0,0,0,0,0,0,0,-2.1007,-2.0991,-2.0842,-2.0849,-2.084,-2.0818,-2.0802,-2.0746,-2.0664,-2.0728,-2.0722,-2.0706,-2.0585,-2.0556,-2.0546,-2.0461,-2.0491,-2.0486,-2.0482,-2.048,-2.0341,-2.0341,0,0,0,0,0,0,-2.1025,-2.0998,-2.0846,-2.0837,-2.0919,-2.0815,-2.0797,-2.0765,-2.0664,-2.0649,-2.0706,-2.0703,-2.0566,-2.0553,-2.054,-2.0493,-2.0485,-2.0479,-2.0476,-2.0341,-2.0341,-2.0341,0,0,0,0,0,0,-2.103,-2.1012,-2.0852,-2.0916,-2.0894,-2.0812,-2.0776,-2.0762,-2.0734,-2.0648,-2.0632,-2.0693,-2.0566,-2.0549,-2.0492,-2.0486,-2.0476,-2.0471,-2.0342,-2.0341,-2.0341,-2.04,0,0,0,0,0,0,-2.1036,-2.1015,-2.1004,-2.0916,-2.0891,-2.0809,-2.0776,-2.076,-2.0724,-2.0718,-2.0631,-2.0616,-2.0564,-2.0502,-2.0487,-2.0478,-2.0466,-2.0342,-2.0341,-2.0341,-2.0398,-2.0402,-2.0405,0,0,0,0,0,-2.1044,-2.1026,-2.1003,-2.0985,-2.0875,-2.0809,-2.0794,-2.0736,-2.0724,-2.071,-2.0655,-2.0619,-2.049,-2.0497,-2.0479,-2.0469,-2.0342,-2.0342,-2.0341,-2.0396,-2.0401,-2.0405,0,0,0,0,0,0,-2.1114,-2.1014,-2.0987,-2.0941,-2.0884,-2.0796,-2.0778,-2.0743,-2.0687,-2.0684,-2.0612,-2.0593,-2.0543,-2.05,-2.051,-2.0429,-2.0412,-2.0408,-2.046,-2.0463,-2.0467,-2.0477,-2.0461,0,0,0,0,0,-2.1124,-2.1081,-2.0994,-2.0962,-2.0934,-2.0861,-2.083,-2.079,-2.0727,-2.0703,-2.0643,-2.0582,-2.0527,-2.0493,-2.0438,-2.0391,-2.0369,-2.0375,-2.0378,-2.0381,-2.0379,-2.0347,-2.0347,-2.034,-2.034,-2.034,0,0,-2.1145,-2.1084,-2.1061,-2.0974,-2.0925,-2.0879,-2.0841,-2.0795,-2.0759,-2.0695,-2.0638,-2.0592,-2.0519,-2.0467,-2.044,-2.0429,-2.0375,-2.0381,-2.0384,-2.0379,-2.0346,-2.0347,-2.0348,-2.034,-2.034,-2.034,0,0,-2.1158,-2.1109,-2.1075,-2.1026,-2.0953,-2.0904,-2.0895,-2.0811,-2.0778,-2.072,-2.067,-2.0625,-2.0533,-2.0482,-2.0444,-2.0434,-2.0398,-2.0418,-2.0436,-2.0405,-2.0406,-2.0406,-2.0399,-2.0398,-2.0416,-2.0416,-2.0416,0,-2.1192,-2.1123,-2.1062,-2.1017,-2.0979,-2.0918,-2.0881,-2.0837,-2.0749,-2.0722,-2.0711,-2.0592,-2.0539,-2.0472,-2.0469,-2.0441,-2.0427,-2.0428,-2.0411,-2.041,-2.0409,-2.0402,-2.0401,-2.0419,-2.0418,-2.0418,-2.0418,0,-2.1167,-2.1119,-2.11,-2.1016,-2.0976,-2.0936,-2.0865,-2.0831,-2.0793,-2.0744,-2.0683,-2.0617,-2.0546,-2.0527,-2.049,-2.0453,-2.0448,-2.0425,-2.0405,-2.0414,-2.0406,-2.0403,-2.0423,-2.0422,-2.0421,-2.042,0,0,-2.1222,-2.1104,-2.1097,-2.1057,-2.097,-2.093,-2.0885,-2.0816,-2.0787,-2.0727,-2.0685,-2.0607,-2.0584,-2.0541,-2.0497,-2.0471,-2.0463,-2.045,-2.0447,-2.0453,-2.0414,-2.0431,-2.043,-2.0438,-2.0438,-2.0437,-2.042,0,-2.1222,-2.114,-2.1082,-2.1022,-2.0974,-2.0915,-2.0875,-2.0815,-2.0767,-2.0718,-2.0664,-2.0609,-2.0584,-2.0557,-2.0529,-2.047,-2.0454,-2.0471,-2.0396,-2.0394,-2.0416,-2.0426,-2.0445,-2.0432,-2.0416,-2.0416,-2.0416,0,-2.1211,-2.1153,-2.1088,-2.1003,-2.098,-2.0946,-2.0876,-2.0831,-2.0761,-2.0727,-2.0678,-2.0632,-2.0578,-2.0564,-2.0487,-2.05,-2.0465,-2.0431,-2.0429,-2.0419,-2.0405,-2.0414,-2.0426,-2.0424,-2.0411,-2.0411,-2.0411,0,-2.1255,-2.1161,-2.1109,-2.1076,-2.0976,-2.0952,-2.0909,-2.0839,-2.08,-2.0737,-2.0711,-2.0643,-2.0606,-2.0553,-2.0489,-2.0485,-2.0418,-2.0399,-2.0386,-2.0388,-2.0374,-2.0376,-2.0379,-2.0355,-2.0355,-2.0355,-2.0355,0,-2.126,-2.1222,-2.1127,-2.1095,-2.1049,-2.0981,-2.0937,-2.0888,-2.0825,-2.078,-2.0724,-2.0683,-2.0601,-2.0549,-2.0498,-2.044,-2.0424,-2.0394,-2.038,-2.0398,-2.0402,-2.0374,-2.0373,-2.0355,-2.0355,-2.0355,-2.0355,0,-2.1302,-2.1237,-2.1176,-2.1085,-2.1061,-2.1031,-2.0951,-2.0916,-2.0864,-2.0808,-2.0791,-2.0708,-2.0643,-2.0574,-2.0486,-2.0452,-2.0396,-2.0378,-2.042,-2.0412,-2.0402,-2.0404,-2.0387,-2.038,-2.0363,-2.0363,-2.0363,0,-2.1309,-2.1278,-2.1183,-2.1149,-2.1107,-2.1054,-2.1014,-2.0944,-2.0903,-2.0819,-2.0793,-2.0724,-2.0665,-2.0564,-2.0495,-2.0426,-2.0405,-2.0404,-2.0394,-2.0412,-2.0402,-2.0404,-2.0399,-2.0407,-2.0407,-2.0408,-2.0408,0,-2.1327,-2.1295,-2.124,-2.1172,-2.1126,-2.1069,-2.101,-2.0985,-2.0902,-2.0859,-2.0792,-2.0747,-2.0656,-2.0587,-2.0509,-2.0461,-2.042,-2.0412,-2.0404,-2.0422,-2.0446,-2.043,-2.0427,-2.0412,-2.0412,-2.0412,-2.0411,-2.0411,-2.1349,-2.1318,-2.1246,-2.1185,-2.1132,-2.1078,-2.1039,-2.0982,-2.0925,-2.0847,-2.0808,-2.074,-2.0666,-2.0558,-2.0511,-2.0455,-2.0443,-2.0433,-2.0431,-2.0429,-2.0432,-2.0456,-2.0441,-2.044,-2.044,-2.044,-2.044,0,-2.1363,-2.1313,-2.1257,-2.1176,-2.1127,-2.1093,-2.1025,-2.0985,-2.0927,-2.0862,-2.0805,-2.0726,-2.0658,-2.0583,-2.0509,-2.0478,-2.0457,-2.0461,-2.0462,-2.0451,-2.0449,-2.0461,-2.0479,-2.0479,-2.0479,-2.0479,-2.0479,-2.0479,-2.1364,-2.1308,-2.1267,-2.1183,-2.1132,-2.1067,-2.103,-2.0978,-2.0925,-2.084,-2.0783,-2.0735,-2.0664,-2.0585,-2.0519,-2.0499,-2.0473,-2.0482,-2.0456,-2.0455,-2.0452,-2.0449,-2.046,-2.0478,-2.0478,-2.0462,-2.0462,-2.0462]}]]